GW1987 Weather Reports


time (UTC)temp
C
wind
direction
speed
KPH
gust
KPH
rain 1hr
cm
rain 24hr
cm
rain mn
cm
humidity
%
barometer
mb
20260904045517 11 360 3.2 6.4 0.00 0.08 0.00 53 921.4
20260904045016 11 360 3.2 4.8 0.00 0.08 0.00 53 921.5
20260904044549 11 360 1.6 4.8 0.00 0.08 0.00 53 921.5
20260904044017 11 360 1.6 6.4 0.00 0.08 0.00 52 921.5
20260904043516 11 360 4.8 6.4 0.00 0.08 0.00 52 921.2
20260904043056 11 360 3.2 6.4 0.00 0.08 0.00 51 921.4
20260904042519 12 360 3.2 6.4 0.00 0.08 0.00 51 921.4
20260904042018 12 360 4.8 6.4 0.00 0.08 0.00 51 921.4
20260904041554 12 360 4.8 8.0 0.00 0.08 0.00 50 921.3
20260904041018 12 360 6.4 8.0 0.00 0.08 0.00 50 921.3
20260904040518 12 360 3.2 8.0 0.00 0.08 0.00 50 921.3
20260904040104 12 360 3.2 9.7 0.00 0.08 0.00 50 921.4
20260904035518 12 360 6.4 9.7 0.00 0.10 0.00 50 921.3
20260904035017 12 360 4.8 8.0 0.00 0.10 0.00 50 921.3
20260904034550 12 360 3.2 9.7 0.00 0.10 0.00 50 921.1
20260904034020 12 360 8.0 12.9 0.00 0.10 0.00 50 921.1
20260904033518 12 360 8.0 12.9 0.00 0.10 0.00 49 920.9
20260904033046 12 360 8.0 12.9 0.00 0.10 0.00 48 921.0
20260904032517 12 360 8.0 12.9 0.00 0.10 0.00 48 920.9
20260904032016 13 360 8.0 9.7 0.00 0.10 0.00 46 920.9
20260904031556 13 360 6.4 8.0 0.00 0.10 0.00 45 920.8
20260904031019 14 360 4.8 8.0 0.00 0.10 0.00 44 920.8
20260904030516 14 360 6.4 8.0 0.00 0.10 0.00 44 920.8
20260904030053 14 360 4.8 6.4 0.00 0.10 0.00 43 920.9
20260904025518 15 360 4.8 6.4 0.00 0.10 0.00 42 921.0
20260904025016 15 360 4.8 6.4 0.00 0.10 0.00 42 921.1
20260904024549 15 360 4.8 6.4 0.00 0.10 0.00 41 921.1
20260904024018 15 360 3.2 4.8 0.00 0.10 0.00 41 920.9
20260904023518 15 360 3.2 4.8 0.00 0.10 0.00 40 921.1
20260904023046 15 360 1.6 4.8 0.00 0.10 0.00 40 921.1
20260904022518 15 360 1.6 4.8 0.00 0.10 0.00 40 920.8
20260904022019 15 360 1.6 6.4 0.00 0.10 0.00 40 920.9
20260904021550 15 360 3.2 9.7 0.00 0.10 0.00 40 921.1
20260904021016 15 360 4.8 12.9 0.00 0.10 0.00 39 920.8
20260904020518 16 360 6.4 12.9 0.00 0.10 0.00 38 920.8
20260904020050 16 360 6.4 14.5 0.00 0.10 0.00 37 920.6
20260904015520 16 360 8.0 14.5 0.00 0.10 0.00 37 920.8
20260904015016 17 360 9.7 14.5 0.00 0.10 0.00 36 920.9
20260904014545 17 360 9.7 20.9 0.00 0.10 0.00 35 920.9
20260904014017 17 360 12.9 22.5 0.00 0.10 0.00 34 921.0
20260904013517 17 360 14.5 25.7 0.00 0.10 0.00 33 920.9
20260904013050 18 360 14.5 27.4 0.00 0.10 0.00 33 920.8
20260904012517 18 360 20.9 29.0 0.00 0.10 0.00 32 920.8
20260904012022 18 360 19.3 27.4 0.00 0.10 0.00 32 920.8
20260904011550 18 360 17.7 32.2 0.00 0.10 0.00 32 920.6
20260904011019 18 360 20.9 32.2 0.00 0.10 0.00 32 920.6
20260904010517 18 360 20.9 30.6 0.00 0.10 0.00 32 920.4
20260904010046 18 360 17.7 29.0 0.00 0.10 0.00 31 920.3
20260904005518 18 360 20.9 29.0 0.00 0.10 0.00 31 920.4
20260904005016 18 360 19.3 27.4 0.00 0.10 0.00 30 920.5
20260904004551 19 360 20.9 27.4 0.00 0.10 0.00 29 920.5
20260904004018 19 360 17.7 29.0 0.00 0.10 0.00 29 920.6
20260904003517 20 360 19.3 30.6 0.00 0.10 0.00 28 920.9
20260904003049 20 360 20.9 32.2 0.00 0.10 0.00 27 920.7
20260904002517 20 360 20.9 29.0 0.00 0.10 0.00 27 920.8
20260904002021 20 360 19.3 33.8 0.00 0.10 0.00 27 920.8
20260904001550 21 360 22.5 37.0 0.00 0.10 0.00 25 920.9
20260904001018 21 360 27.4 37.0 0.00 0.10 0.00 24 920.8
20260904000522 21 360 20.9 35.4 0.00 0.10 0.00 24 920.7
20260904000107 21 360 24.1 35.4 0.00 0.10 0.00 25 920.7
20260903235523 21 360 20.9 35.4 0.00 0.10 0.00 25 920.9
20260903235022 21 360 20.9 35.4 0.00 0.10 0.00 25 920.6
20260903234552 21 360 16.1 35.4 0.00 0.10 0.00 25 920.5
20260903234016 21 360 20.9 35.4 0.00 0.10 0.00 24 920.5
20260903233516 21 360 20.9 30.6 0.00 0.10 0.00 23 920.3
20260903233050 21 360 19.3 35.4 0.00 0.10 0.00 23 920.6
20260903232519 21 360 25.7 35.4 0.00 0.10 0.00 23 920.5
20260903232019 21 360 22.5 33.8 0.00 0.10 0.00 23 920.4
20260903231545 22 360 20.9 33.8 0.00 0.10 0.00 23 920.3
20260903231018 22 360 20.9 32.2 0.00 0.10 0.00 23 920.5
20260903230517 21 360 14.5 30.6 0.00 0.10 0.00 24 920.7
20260903230055 21 360 17.7 29.0 0.00 0.10 0.00 23 920.6
20260903225519 21 360 19.3 33.8 0.00 0.15 0.00 25 920.6
20260903225015 21 360 20.9 33.8 0.00 0.15 0.00 24 920.4
20260903224550 21 360 20.9 38.6 0.00 0.15 0.00 25 920.6
20260903224017 21 360 24.1 40.2 0.00 0.15 0.00 25 920.3
20260903223520 21 360 27.4 40.2 0.00 0.15 0.00 25 920.5
20260903223046 21 360 25.7 38.6 0.00 0.15 0.00 24 920.4
20260903222519 21 360 24.1 38.6 0.00 0.15 0.00 24 920.3
20260903222018 21 360 22.5 38.6 0.00 0.15 0.00 25 920.5
20260903221550 21 360 22.5 37.0 0.00 0.15 0.00 25 920.4
20260903221016 21 360 22.5 40.2 0.00 0.15 0.00 26 920.5
20260903220517 21 360 27.4 40.2 0.00 0.15 0.00 26 920.5
20260903220049 21 360 25.7 43.5 0.00 0.15 0.00 25 920.5
20260903215523 21 360 30.6 43.5 0.00 0.15 0.00 25 920.4
20260903215021 21 360 29.0 43.5 0.00 0.15 0.00 24 920.4
20260903214605 21 360 27.4 43.5 0.00 0.15 0.00 24 920.5
20260903214017 21 360 27.4 41.8 0.00 0.15 0.00 24 920.7
20260903213517 21 360 29.0 41.8 0.00 0.15 0.00 24 920.6
20260903213057 21 360 30.6 41.8 0.00 0.15 0.00 24 920.7
20260903212528 21 360 25.7 41.8 0.00 0.15 0.00 25 920.7
20260903212016 21 360 27.4 41.8 0.00 0.15 0.00 26 920.5
20260903211600 21 360 29.0 38.6 0.00 0.15 0.00 25 920.3
20260903211019 21 360 25.7 41.8 0.00 0.15 0.00 25 920.2
20260903210520 21 360 29.0 41.8 0.00 0.15 0.00 26 920.1
20260903210052 21 360 25.7 40.2 0.00 0.15 0.00 26 920.2
20260903205520 21 360 25.7 35.4 0.00 0.15 0.00 27 920.1
20260903205017 21 360 24.1 41.8 0.00 0.15 0.00 26 920.1
20260903204602 21 360 25.7 41.8 0.00 0.15 0.00 26 920.1
20260903204018 21 360 22.5 40.2 0.00 0.15 0.00 27 920.2
20260903203522 21 360 27.4 40.2 0.00 0.15 0.00 27 920.1
20260903203056 21 360 30.6 40.2 0.00 0.15 0.00 27 920.1
20260903202521 21 360 20.9 41.8 0.00 0.15 0.00 28 920.1
20260903202021 21 360 29.0 41.8 0.00 0.15 0.00 28 920.2
20260903201600 21 360 25.7 35.4 0.00 0.15 0.00 27 920.3
20260903201022 22 360 19.3 35.4 0.00 0.15 0.00 27 920.0
20260903200530 21 360 22.5 37.0 0.00 0.15 0.00 26 920.1
20260903195521 21 360 22.5 38.6 0.00 0.15 0.00 27 920.1
20260903195024 21 360 27.4 38.6 0.00 0.15 0.00 27 920.1
20260903194554 21 360 20.9 32.2 0.00 0.15 0.00 27 919.9
20260903194020 21 360 22.5 32.2 0.00 0.15 0.00 27 920.1
20260903193517 21 360 19.3 38.6 0.00 0.15 0.00 28 920.0
20260903193057 21 360 27.4 38.6 0.00 0.15 0.00 28 919.9
20260903192526 21 360 20.9 37.0 0.00 0.15 0.00 29 920.1
20260903192021 21 360 20.9 38.6 0.00 0.15 0.00 29 920.0
20260903191559 21 360 25.7 40.2 0.00 0.15 0.00 28 920.0
20260903191021 21 360 19.3 40.2 0.00 0.15 0.00 28 919.9
20260903190521 21 360 19.3 35.4 0.00 0.15 0.00 28 920.0
20260903185519 21 360 19.3 33.8 0.00 0.15 0.00 29 919.9
20260903185019 21 360 19.3 33.8 0.00 0.15 0.00 30 919.7
20260903184559 21 360 22.5 35.4 0.00 0.15 0.00 30 919.7
20260903184024 21 360 25.7 35.4 0.00 0.15 0.00 30 919.8
20260903183523 21 360 19.3 37.0 0.00 0.15 0.00 29 919.8
20260903183052 21 360 20.9 37.0 0.00 0.15 0.00 30 919.7
20260903182521 20 360 17.7 35.4 0.00 0.15 0.00 30 919.8
20260903182022 20 360 20.9 35.4 0.00 0.15 0.00 29 919.8
20260903181603 21 360 20.9 32.2 0.00 0.15 0.00 29 919.7
20260903181017 21 360 14.5 38.6 0.00 0.15 0.00 30 919.7
20260903180523 20 360 22.5 40.2 0.00 0.15 0.00 29 919.7
20260903180056 20 360 20.9 35.4 0.00 0.15 0.00 29 919.8
20260903175517 20 360 24.1 38.6 0.00 0.15 0.00 30 919.6
20260903175020 20 360 22.5 38.6 0.00 0.15 0.00 30 920.0
20260903174602 20 360 17.7 38.6 0.00 0.15 0.00 30 919.8
20260903174020 20 360 25.7 38.6 0.00 0.15 0.00 29 919.7
20260903173519 20 360 22.5 40.2 0.00 0.15 0.00 31 919.5
20260903173058 20 360 27.4 40.2 0.00 0.15 0.00 32 919.6
20260903172521 19 360 24.1 37.0 0.00 0.15 0.00 32 919.6
20260903172020 20 360 20.9 33.8 0.00 0.15 0.00 31 919.5
20260903171557 20 360 22.5 40.2 0.00 0.15 0.00 31 919.5
20260903171018 20 360 22.5 40.2 0.00 0.15 0.00 31 919.2
20260903170521 20 360 19.3 41.8 0.00 0.15 0.00 31 919.5
20260903170107 19 360 25.7 41.8 0.00 0.15 0.00 32 919.6
20260903165523 19 360 25.7 41.8 0.00 0.15 0.00 32 919.5
20260903165019 19 360 22.5 38.6 0.00 0.15 0.00 33 919.5
20260903164603 19 360 17.7 33.8 0.00 0.15 0.00 33 919.3
20260903164021 19 360 16.1 27.4 0.00 0.15 0.00 33 919.6
20260903163523 20 360 17.7 29.0 0.00 0.15 0.00 34 919.4
20260903163059 19 360 16.1 29.0 0.00 0.15 0.00 36 919.3
20260903162519 18 360 16.1 25.7 0.00 0.15 0.00 36 919.4
20260903162027 18 360 12.9 33.8 0.00 0.15 0.00 38 919.3
20260903161558 18 360 19.3 33.8 0.00 0.15 0.00 37 919.3
20260903161021 18 360 11.3 27.4 0.00 0.15 0.00 37 919.2
20260903160521 18 360 11.3 29.0 0.00 0.15 0.00 39 919.4
20260903160054 18 360 17.7 29.0 0.00 0.15 0.00 38 919.3
20260903155520 18 360 14.5 27.4 0.00 0.15 0.00 39 919.1
20260903155023 17 360 16.1 24.1 0.00 0.15 0.00 38 919.1
20260903154603 17 360 14.5 25.7 0.00 0.15 0.00 39 919.0
20260903154027 17 360 17.7 25.7 0.00 0.15 0.00 39 919.1
20260903153524 17 360 17.7 29.0 0.00 0.15 0.00 38 919.1
20260903153125 17 360 19.3 29.0 0.00 0.15 0.00 38 919.2
20260903152521 17 360 17.7 30.6 0.00 0.15 0.00 39 919.0
20260903152023 17 360 16.1 30.6 0.00 0.15 0.00 40 919.0
20260903151549 17 360 14.5 32.2 0.00 0.15 0.00 41 919.1
20260903151023 17 360 17.7 32.2 0.00 0.15 0.00 42 919.2
20260903150520 16 360 16.1 25.7 0.00 0.15 0.00 42 919.1
20260903150110 16 360 12.9 25.7 0.00 0.15 0.00 43 919.2
20260903145522 16 360 14.5 19.3 0.00 0.15 0.00 45 919.1
20260903145018 16 360 9.7 20.9 0.00 0.15 0.00 46 919.1
20260903144555 15 360 11.3 20.9 0.00 0.15 0.00 46 919.1
20260903144023 15 360 11.3 20.9 0.00 0.15 0.00 46 919.1
20260903143520 15 360 12.9 22.5 0.00 0.15 0.00 47 919.1
20260903143105 15 360 11.3 22.5 0.00 0.15 0.00 48 919.1
20260903142525 14 360 9.7 22.5 0.00 0.15 0.00 50 919.1
20260903142025 14 360 16.1 22.5 0.00 0.15 0.00 49 919.0
20260903141550 13 360 12.9 20.9 0.00 0.15 0.00 51 918.8
20260903141020 13 360 12.9 17.7 0.00 0.15 0.00 51 918.9
20260903140525 13 360 9.7 19.3 0.00 0.15 0.00 51 918.8
20260903140052 12 360 11.3 19.3 0.00 0.15 0.00 51 918.8
20260903135520 12 360 12.9 20.9 0.00 0.15 0.00 52 918.8
20260903135021 12 360 14.5 20.9 0.00 0.15 0.00 52 918.7
20260903134604 12 360 9.7 19.3 0.00 0.15 0.00 54 918.5
20260903134024 11 360 9.7 17.7 0.00 0.15 0.00 55 918.5
20260903133524 11 360 9.7 17.7 0.00 0.15 0.00 54 918.4
20260903133102 11 360 8.0 17.7 0.00 0.15 0.00 54 918.4
20260903132522 11 360 9.7 16.1 0.00 0.15 0.00 54 918.4
20260903132024 11 360 9.7 17.7 0.00 0.15 0.00 54 918.3
20260903131554 11 360 11.3 17.7 0.00 0.15 0.00 54 918.2
20260903131023 11 360 9.7 16.1 0.00 0.15 0.00 53 918.1
20260903130520 11 360 9.7 20.9 0.00 0.15 0.00 52 918.0
20260903125521 11 360 14.5 19.3 0.00 0.15 0.00 52 917.9
20260903125024 11 360 11.3 19.3 0.00 0.15 0.00 53 917.9
20260903124557 11 360 12.9 19.3 0.00 0.15 0.00 54 917.8
20260903124025 11 360 12.9 19.3 0.00 0.15 0.00 55 917.8
20260903123524 10 360 11.3 19.3 0.00 0.15 0.00 56 917.9
20260903123053 10 360 11.3 16.1 0.00 0.15 0.00 57 917.7
20260903122521 10 360 9.7 16.1 0.00 0.15 0.00 57 917.6
20260903122019 10 360 9.7 16.1 0.00 0.15 0.00 58 917.7
20260903121606 10 360 9.7 16.1 0.00 0.15 0.00 59 917.9
20260903121020 9 360 9.7 14.5 0.00 0.15 0.00 60 917.9
20260903120521 9 360 8.0 12.9 0.00 0.15 0.00 60 917.8
20260903120058 9 360 6.4 8.0 0.00 0.15 0.00 59 917.9
20260903115524 10 360 4.8 8.0 0.00 0.15 0.00 58 918.1
20260903115020 10 360 4.8 9.7 0.00 0.15 0.00 57 918.2
20260903114558 10 360 6.4 9.7 0.00 0.15 0.00 56 918.3
20260903114024 11 360 4.8 12.9 0.00 0.15 0.00 55 918.2
20260903113523 11 360 6.4 9.7 0.00 0.15 0.00 53 918.0
20260903113103 11 360 4.8 14.5 0.00 0.15 0.00 53 918.1
20260903112524 11 360 8.0 14.5 0.00 0.15 0.00 53 918.0
20260903112025 11 360 6.4 17.7 0.00 0.15 0.00 54 918.1
20260903111557 11 360 9.7 17.7 0.00 0.15 0.00 54 918.1
20260903111027 11 360 9.7 14.5 0.00 0.15 0.00 55 918.1
20260903110525 11 360 8.0 16.1 0.00 0.15 0.00 55 918.1
20260903110058 11 360 8.0 16.1 0.00 0.15 0.00 53 918.2
20260903105528 12 360 8.0 19.3 0.00 0.15 0.00 52 918.0
20260903105017 12 360 9.7 19.3 0.00 0.15 0.00 51 918.0
20260903104612 12 360 11.3 22.5 0.00 0.15 0.00 50 918.0
20260903104020 12 360 14.5 22.5 0.00 0.15 0.00 50 917.9
20260903103520 12 360 14.5 22.5 0.00 0.15 0.00 50 917.9
20260903103100 12 360 14.5 22.5 0.00 0.15 0.00 50 917.8
20260903102523 12 360 14.5 25.7 0.00 0.15 0.00 50 917.6
20260903102025 12 360 14.5 25.7 0.00 0.15 0.00 51 917.7
20260903101600 12 360 16.1 22.5 0.00 0.15 0.00 52 917.6
20260903101024 11 360 14.5 20.9 0.00 0.15 0.00 54 917.7
20260903100517 11 360 8.0 16.1 0.00 0.15 0.00 55 917.6
20260903100048 11 360 8.0 16.1 0.00 0.15 0.00 55 917.8
20260903095522 11 360 9.7 17.7 0.00 0.15 0.00 55 917.9
20260903095019 11 360 9.7 17.7 0.00 0.15 0.00 54 917.8
20260903094551 11 360 9.7 17.7 0.00 0.15 0.00 55 917.7
20260903094021 11 360 9.7 17.7 0.00 0.15 0.00 55 917.8
20260903093524 11 360 11.3 16.1 0.00 0.15 0.00 55 917.6
20260903093102 11 360 9.7 16.1 0.00 0.15 0.00 56 917.7
20260903092525 11 360 9.7 14.5 0.00 0.15 0.00 56 917.8
20260903092022 11 360 8.0 12.9 0.00 0.15 0.00 56 917.6
20260903091539 11 360 8.0 12.9 0.00 0.15 0.00 56 917.6
20260903091015 11 360 8.0 14.5 0.00 0.15 0.00 55 917.6
20260903090517 11 360 6.4 14.5 0.00 0.15 0.00 55 917.6
20260903090036 12 360 8.0 16.1 0.00 0.15 0.00 54 917.7
20260903085518 11 360 11.3 16.1 0.00 0.15 0.00 55 917.5
20260903085018 11 360 11.3 14.5 0.00 0.15 0.00 56 917.6
20260903084543 11 360 8.0 19.3 0.00 0.15 0.00 56 917.4
20260903084018 11 360 9.7 19.3 0.00 0.15 0.00 57 917.4
20260903083518 11 360 14.5 19.3 0.00 0.15 0.00 59 917.5
20260903083034 11 360 8.0 9.7 0.00 0.15 0.00 58 917.4
20260903082516 11 360 4.8 12.9 0.00 0.15 0.00 57 917.3
20260903082016 11 360 6.4 14.5 0.00 0.15 0.00 56 917.2
20260903081535 12 360 8.0 16.1 0.00 0.15 0.00 56 917.2
20260903081020 12 360 8.0 17.7 0.00 0.15 0.00 55 917.3
20260903080519 12 360 8.0 16.1 0.00 0.15 0.00 56 917.2
20260903080036 12 360 9.7 16.1 0.00 0.15 0.00 57 917.2
20260903075516 12 360 8.0 17.7 0.00 0.15 0.00 57 917.3
20260903075016 12 360 11.3 17.7 0.00 0.15 0.00 57 917.1
20260903074534 12 360 9.7 16.1 0.00 0.15 0.00 56 917.1
20260903074018 12 360 11.3 16.1 0.00 0.15 0.00 55 917.2
20260903073519 12 360 9.7 19.3 0.00 0.15 0.00 56 917.1
20260903073036 13 360 6.4 19.3 0.00 0.15 0.00 54 917.2
20260903072517 12 360 9.7 17.7 0.00 0.15 0.00 53 917.1
20260903072018 12 360 9.7 17.7 0.00 0.15 0.00 56 917.1
20260903071535 12 360 11.3 17.7 0.00 0.15 0.00 56 917.0
20260903071017 12 360 11.3 17.7 0.00 0.15 0.00 56 917.0
20260903070519 12 360 11.3 20.9 0.00 0.15 0.00 55 917.0
20260903070035 12 360 12.9 22.5 0.00 0.15 0.00 54 916.9
20260903065517 12 360 12.9 24.1 0.00 0.15 0.00 55 916.8
20260903065018 12 360 12.9 20.9 0.00 0.15 0.00 56 916.9
20260903064540 12 360 12.9 22.5 0.00 0.15 0.00 56 917.0
20260903064018 12 360 14.5 25.7 0.00 0.15 0.00 56 917.1
20260903063517 12 360 17.7 25.7 0.00 0.15 0.00 57 917.2
20260903063039 12 360 14.5 25.7 0.00 0.15 0.00 59 917.3
20260903062518 12 360 16.1 27.4 0.00 0.15 0.00 59 917.3
20260903062018 12 360 17.7 27.4 0.00 0.15 0.00 59 917.2
20260903061534 12 360 17.7 30.6 0.00 0.15 0.00 59 917.2
20260903061018 12 360 16.1 30.6 0.00 0.15 0.00 59 917.1
20260903060517 12 360 16.1 27.4 0.03 0.15 0.00 60 917.1
20260903060043 12 360 14.5 25.7 0.03 0.15 0.00 62 917.3
20260903055518 11 360 12.9 20.9 0.03 0.15 0.15 63 917.3
20260903055017 11 360 11.3 20.9 0.05 0.15 0.15 64 917.5
20260903054537 11 360 11.3 20.9 0.05 0.15 0.15 64 917.4
20260903054018 11 360 11.3 19.3 0.05 0.15 0.15 65 917.6
20260903053516 11 360 11.3 17.7 0.05 0.15 0.15 66 917.7
20260903053039 11 360 8.0 16.1 0.05 0.15 0.15 67 917.7
20260903052518 11 360 6.4 12.9 0.05 0.15 0.15 67 917.8
20260903052016 11 360 6.4 12.9 0.05 0.15 0.15 67 917.8
20260903051545 11 360 6.4 12.9 0.05 0.15 0.15 68 917.8
20260903051021 11 360 6.4 16.1 0.05 0.15 0.15 67 917.9
20260903050517 11 360 8.0 17.7 0.05 0.10 0.10 67 918.1
20260903050049 11 360 9.7 22.5 0.05 0.10 0.10 67 918.2